ATHENA-FIDUS

Last updated on Tue Sep 22 2026 00:03:13 GMT+0000 (Coordinated Universal Time)

1 39509U 14006B 26264.56785104 .00000150 00000+0 00000+0 0 9997 2 39509 0.0096 175.1713 0001440 12.3925 55.1158 1.00271440 46058
UTC large
Height (km)
Speed (km/s)
/
Latitude / Longitude
Inclination (degrees)
Orbital Period (minutes)
Azimuth
Elevation
Range (km)
Doppler Factor

Next 0 passes for location: London (51.5072 / 0.1276)

No passes found over London.
ATHENA-FIDUS